Regional Weather Roundup
Issued by NWS Cleveland, OH

Home | Current Version | Previous Version | Graphics & Text | Print | Product List | Glossary On
Versions: 1 2 3 4 5 6 7 8 9 10 11 12 13 14 15 16 17 18 19 20 21 22 23 24 25 26 27 28 29 30 31 32 33 34 35 36 37 38 39 40 41 42 43 44 45 46 47 48 49 50
407
ASUS41 KCLE 262200
RWRCLE
OHIO REGIONAL WEATHER ROUNDUP
NATIONAL WEATHER SERVICE WILMINGTON, OH
600 PM EDT SAT MAY 26 2018

NOTE: "FAIR" INDICATES FEW OR NO CLOUDS BELOW 12,000 FEET WITH NO
SIGNIFICANT WEATHER AND/OR OBSTRUCTIONS TO VISIBILITY.

OHZ001>008-015>018-024>027-034-035-043-044-262300-
   NORTHWEST OHIO

CITY           SKY/WX    TMP DP  RH WIND       PRES   REMARKS
DEFIANCE       FAIR      79  68  69 S7        29.77F
FINDLAY        FAIR      76  71  85 E5        29.79F
TOLEDO EXPRESS PTSUNNY   79  66  64 S6        29.78R
TOLEDO EXEC    FAIR      79  66  64 S7        29.79R
LIMA           PTSUNNY   76  70  82 S7        29.80S
$$

OHZ009>014-019>023-028>033-038-089-262300-
   NORTHEAST OHIO

CITY           SKY/WX    TMP DP  RH WIND       PRES   REMARKS
CLE-HOPKINS    CLOUDY    74  64  71 N8        29.82R THUNDER
CLE-LAKEFRONT  PTSUNNY   69  62  78 NE6       29.79S
CUY CO. ARPT   PTSUNNY   75  64  69 NW6       29.81F
LORAIN-ELYRIA  TSTM      67  61  81 NW12      29.82R
ASHTABULA      LGT RAIN  74  68  81 NW7       29.83R
AKRON-CANTON   PTSUNNY   77  67  71 SE10      29.82F
WOOSTER        NOT AVBL
MANSFIELD      PTSUNNY   78  65  63 NW21G26   29.81R
YOUNGSTOWN     PTSUNNY   79  62  56 S5        29.83F
$$

OHZ042-051>053-060>062-070>072-077>081-262300-
  SOUTHWEST OHIO

CITY           SKY/WX    TMP DP  RH WIND       PRES   REMARKS
CINC-COVINGTON FAIR      80  70  71 SW5       29.81S
CINC-LUNKEN    FAIR      77  70  79 NE5       29.81S
HAMILTON       FAIR      78  73  84 VRB3      29.81F
DAYTON         NOT AVBL
WRIGHT-PAT AFB NOT AVBL
DAYTON GENERAL FAIR      72  68  87 S7        29.81S
WILMINGTON     LGT RAIN  68  68 100 S7        29.83F
$$

OHZ036-037-039>041-045>050-054>059-063>069-073>076-082>088-262300-
  CENTRAL AND SOUTHEAST OHIO

CITY           SKY/WX    TMP DP  RH WIND       PRES   REMARKS
COLUMBUS       PTSUNNY   83  63  50 SW8       29.78S
OSU AIRPORT    TSTM      70  66  87 NW13G38   29.82R FOG
BOLTON FIELD   TSTM      79  66  65 W22G32    29.81R
RICKENBACK AFB NOT AVBL
NEWARK         FAIR      79  66  64 S14       29.79S
MARION         LGT RAIN  73  67  81 NW13      29.82R
LANCASTER      CLOUDY    79  68  69 SW5       29.81S
ZANESVILLE     LGT RAIN  75  69  81 S5        29.82S
NEW PHILLY     PTSUNNY   78  66  66 N13       29.83R
$$




USA.gov is the U.S. government's official web portal to all federal, state and local government web resources and services.